Location: Unspecified
(43.3830°N, 0.0000°E)
Time: 23:08:07
(UTC+00:00)

Explorer 7 - All Passes

Search period start: 25 June 2019 00:00
Search period end: 05 July 2019 00:00
Orbit: 485 x 680 km, 50.3° (Epoch: 25 June)

Date Brightness Start Highest point End Pass type
(mag) Time Alt. Az. Time Alt. Az. Time Alt. Az.
25 Jun - 07:15:43 10° SW 07:19:43 49° SE 07:24:01 10° ENE daylight
25 Jun - 08:56:10 10° W 09:00:21 48° NNW 09:04:50 10° ENE daylight
25 Jun - 10:37:31 10° WNW 10:41:40 34° N 10:46:00 10° ENE daylight
25 Jun - 12:18:17 10° WNW 12:22:54 58° NNE 12:27:42 10° ESE daylight
25 Jun - 13:59:00 10° WNW 14:03:30 41° SW 14:08:05 10° SSE daylight
26 Jun - 05:42:45 10° SSE 05:44:52 14° SE 05:47:02 10° E daylight
26 Jun - 07:20:35 10° SW 07:24:44 75° SSE 07:29:11 10° ENE daylight
26 Jun - 09:01:30 10° W 09:05:36 40° NNW 09:09:57 10° ENE daylight
26 Jun - 10:42:45 10° WNW 10:46:57 36° N 10:51:22 10° ENE daylight
26 Jun - 12:23:22 10° WNW 12:28:03 77° NNE 12:32:55 10° ESE daylight
26 Jun - 14:04:22 10° WNW 14:08:24 27° SW 14:12:31 10° SSE daylight
27 Jun - 05:46:29 10° S 05:49:39 22° SE 05:53:00 10° E daylight
27 Jun - 07:25:39 10° WSW 07:29:49 76° NNW 07:34:17 10° ENE daylight
27 Jun - 09:06:51 10° WNW 09:10:53 35° N 09:15:08 10° ENE daylight
27 Jun - 10:47:55 10° WNW 10:52:13 41° NNE 10:56:45 10° E daylight
27 Jun - 12:28:27 10° WNW 12:33:08 78° SSW 12:38:00 10° SE daylight
27 Jun - 14:10:05 10° W 14:13:15 18° SW 14:16:29 10° S daylight
28 Jun - 05:50:50 10° SSW 05:54:31 35° SE 05:58:27 10° ENE daylight
28 Jun - 07:30:51 10° W 07:34:57 55° NNW 07:39:22 10° ENE daylight
28 Jun - 09:12:11 10° WNW 09:16:10 33° N 09:20:23 10° ENE daylight
28 Jun - 10:53:02 10° WNW 10:57:27 49° NNE 11:02:06 10° E daylight
28 Jun - 12:33:36 10° WNW 12:38:10 53° SW 12:42:54 10° SE daylight
28 Jun - 14:16:56 10° WSW 14:18:03 11° SW 14:19:10 10° SW daylight
29 Jun - 05:55:33 10° SW 05:59:28 56° SE 06:03:42 10° ENE daylight
29 Jun - 07:36:09 10° W 07:40:10 43° NNW 07:44:28 10° ENE daylight
29 Jun - 09:17:27 10° WNW 09:21:28 34° N 09:25:42 10° ENE daylight
29 Jun - 10:58:07 10° WNW 11:02:38 63° NNE 11:07:23 10° ESE daylight
29 Jun - 12:38:52 10° WNW 12:43:08 35° SW 12:47:32 10° SSE daylight
30 Jun - 04:22:09 10° SSE 04:24:34 16° SE 04:27:03 10° E daylight
30 Jun - 06:00:29 10° WSW 06:04:31 85° SSE 06:08:50 10° ENE daylight
30 Jun - 07:41:30 10° W 07:45:25 37° N 07:49:36 10° ENE daylight
30 Jun - 09:22:39 10° WNW 09:26:45 36° N 09:31:05 10° ENE daylight
30 Jun - 11:03:11 10° WNW 11:07:46 85° NNE 11:12:34 10° ESE daylight
30 Jun - 12:44:20 10° W 12:48:02 23° SW 12:51:50 10° S daylight
01 Jul - 04:26:08 10° SSW 04:29:24 25° SE 04:32:48 10° E daylight
01 Jul - 06:05:36 10° WSW 06:09:37 67° NNW 06:13:56 10° ENE daylight
01 Jul - 07:46:51 10° WNW 07:50:42 33° N 07:54:48 10° ENE daylight
01 Jul - 09:27:48 10° WNW 09:32:00 42° NNE 09:36:27 10° E daylight
01 Jul - 11:08:17 10° WNW 11:12:50 69° SW 11:17:35 10° SE daylight
01 Jul - 12:50:15 10° W 12:52:52 15° SW 12:55:32 10° SSW daylight
02 Jul - 04:30:37 10° SSW 04:34:17 40° SE 04:38:11 10° ENE daylight
02 Jul - 06:10:50 10° W 06:14:47 50° NNW 06:19:00 10° ENE daylight
02 Jul - 07:52:09 10° WNW 07:56:00 32° N 08:00:04 10° ENE daylight
02 Jul - 09:32:53 10° WNW 09:37:13 52° NNE 09:41:47 10° E daylight
02 Jul - 11:13:28 10° WNW 11:17:50 46° SW 11:22:24 10° SE daylight
03 Jul - 02:58:49 10° SE 02:59:30 10° SE 03:00:13 10° ESE visible
03 Jul - 04:35:24 10° SW 04:39:16 64° SE 04:43:24 10° ENE daylight
03 Jul - 06:16:10 10° W 06:20:00 40° NNW 06:24:06 10° NE daylight
03 Jul - 07:57:24 10° WNW 08:01:17 33° N 08:05:24 10° ENE daylight
03 Jul - 09:37:58 10° WNW 09:42:22 69° NNE 09:47:03 10° ESE daylight
03 Jul - 11:18:47 10° WNW 11:22:47 30° SW 11:26:56 10° SSE daylight
04 Jul - 03:01:39 10° S 03:04:18 18° SE 03:07:01 10° E visible
04 Jul - 04:40:24 10° WSW 04:44:20 85° NNW 04:48:31 10° ENE daylight
04 Jul - 06:21:31 10° WNW 06:25:16 34° N 06:29:15 10° ENE daylight
04 Jul - 08:02:35 10° WNW 08:06:34 37° NNE 08:10:47 10° E daylight
04 Jul - 09:43:02 10° WNW 09:47:29 87° SSW 09:52:11 10° ESE daylight
04 Jul - 11:24:22 10° W 11:27:40 20° SW 11:31:03 10° S daylight
